Time,TemperatureF,DewpointF,PressureIn,WindDirection,WindDirectionDegrees,WindSpeedMPH,WindSpeedGustMPH,Humidity,HourlyPrecipIn,Conditions,Clouds,dailyrainin,SoftwareType,DateUTC
2013-07-06 00:02:00,73.0,64.0,30.06,SSE,164,3.0,-999.0,73,-99.99,,,-99.99,,2013-07-06 05:02:00,
2013-07-06 00:12:00,73.0,64.0,30.06,South,169,3.0,-999.0,73,-99.99,,,-99.99,,2013-07-06 05:12:00,
2013-07-06 00:22:00,73.0,64.0,30.07,SSE,164,3.0,-999.0,73,-99.99,,,-99.99,,2013-07-06 05:22:00,
2013-07-06 00:33:00,73.0,63.0,30.07,SSE,156,3.0,-999.0,68,-99.99,,,-99.99,,2013-07-06 05:33:00,
2013-07-06 00:42:00,73.0,63.0,30.07,South,174,3.0,-999.0,68,-99.99,,,-99.99,,2013-07-06 05:42:00,
2013-07-06 00:53:00,73.0,63.0,30.07,South,187,3.0,-999.0,68,-99.99,,,-99.99,,2013-07-06 05:53:00,
2013-07-06 01:02:00,73.0,63.0,30.07,SSW,192,3.0,-999.0,68,-99.99,,,-99.99,,2013-07-06 06:02:00,
2013-07-06 01:12:00,73.0,63.0,30.07,South,187,3.0,-999.0,68,-99.99,,,-99.99,,2013-07-06 06:12:00,
2013-07-06 01:22:00,73.0,63.0,30.07,South,180,5.0,-999.0,68,-99.99,,,-99.99,,2013-07-06 06:22:00,
2013-07-06 01:34:00,73.0,63.0,30.07,South,180,3.0,-999.0,68,-99.99,,,-99.99,,2013-07-06 06:34:00,
2013-07-06 01:43:00,72.0,63.0,30.07,South,181,3.0,-999.0,73,-99.99,,,-99.99,,2013-07-06 06:43:00,
2013-07-06 01:53:00,72.0,63.0,30.06,South,185,3.0,-999.0,73,-99.99,,,-99.99,,2013-07-06 06:53:00,
2013-07-06 02:02:00,72.0,63.0,30.06,South,182,3.0,-999.0,73,-99.99,,,-99.99,,2013-07-06 07:02:00,
2013-07-06 02:12:00,72.0,63.0,30.06,South,171,3.0,-999.0,73,-99.99,,,-99.99,,2013-07-06 07:12:00,
2013-07-06 02:22:00,72.0,63.0,30.06,South,182,3.0,-999.0,73,-99.99,,,-99.99,,2013-07-06 07:22:00,
2013-07-06 02:33:00,72.0,63.0,30.06,South,181,2.0,-999.0,73,-99.99,,,-99.99,,2013-07-06 07:33:00,
2013-07-06 02:44:00,72.0,63.0,30.06,SSE,167,2.0,-999.0,73,-99.99,,,-99.99,,2013-07-06 07:44:00,
2013-07-06 02:52:00,72.0,63.0,30.06,SSE,159,3.0,-999.0,73,-99.99,,,-99.99,,2013-07-06 07:52:00,
2013-07-06 03:02:00,70.0,63.0,30.06,SSE,160,2.0,-999.0,77,-99.99,,,-99.99,,2013-07-06 08:02:00,
2013-07-06 03:12:00,70.0,63.0,30.07,SSE,155,5.0,-999.0,77,-99.99,,,-99.99,,2013-07-06 08:12:00,
2013-07-06 03:21:00,70.0,63.0,30.06,SSE,162,5.0,-999.0,77,-99.99,,,-99.99,,2013-07-06 08:21:00,
2013-07-06 03:34:00,70.0,63.0,30.06,SSE,150,3.0,-999.0,77,-99.99,,,-99.99,,2013-07-06 08:34:00,
2013-07-06 03:43:00,70.0,63.0,30.07,South,175,3.0,-999.0,77,-99.99,,,-99.99,,2013-07-06 08:43:00,
2013-07-06 03:54:00,70.0,63.0,30.07,South,170,3.0,-999.0,77,-99.99,,,-99.99,,2013-07-06 08:54:00,
2013-07-06 04:02:00,70.0,63.0,30.07,SSE,166,3.0,-999.0,77,-99.99,,,-99.99,,2013-07-06 09:02:00,
2013-07-06 04:11:00,70.0,63.0,30.06,South,180,3.0,-999.0,77,-99.99,,,-99.99,,2013-07-06 09:11:00,
2013-07-06 04:22:00,70.0,63.0,30.06,SSW,194,3.0,-999.0,77,-99.99,,,-99.99,,2013-07-06 09:22:00,
2013-07-06 04:33:00,68.0,63.0,30.06,South,186,3.0,-999.0,82,-99.99,,,-99.99,,2013-07-06 09:33:00,
2013-07-06 04:43:00,68.0,63.0,30.06,South,191,3.0,-999.0,82,-99.99,,,-99.99,,2013-07-06 09:43:00,
2013-07-06 04:52:00,68.0,63.0,30.06,South,176,3.0,-999.0,82,-99.99,,,-99.99,,2013-07-06 09:52:00,
2013-07-06 05:02:00,68.0,63.0,30.06,South,174,3.0,-999.0,82,-99.99,,,-99.99,,2013-07-06 10:02:00,
2013-07-06 05:11:00,68.0,63.0,30.06,South,180,3.0,-999.0,82,-99.99,,,-99.99,,2013-07-06 10:11:00,
2013-07-06 05:22:00,68.0,63.0,30.06,SSE,165,3.0,-999.0,82,-99.99,,,-99.99,,2013-07-06 10:22:00,
2013-07-06 05:33:00,68.0,63.0,30.06,SSE,166,2.0,-999.0,82,-99.99,,,-99.99,,2013-07-06 10:33:00,
2013-07-06 05:42:00,66.0,63.0,30.06,South,178,2.0,-999.0,88,-99.99,,,-99.99,,2013-07-06 10:42:00,
2013-07-06 05:53:00,66.0,63.0,30.06,SSE,155,3.0,-999.0,88,-99.99,,,-99.99,,2013-07-06 10:53:00,
2013-07-06 06:01:00,66.0,63.0,30.06,SSE,167,2.0,-999.0,88,-99.99,,,-99.99,,2013-07-06 11:01:00,
2013-07-06 06:11:00,66.0,63.0,30.07,SSE,163,2.0,-999.0,88,-99.99,,,-99.99,,2013-07-06 11:11:00,
2013-07-06 06:22:00,66.0,63.0,30.07,South,172,3.0,-999.0,88,-99.99,,,-99.99,,2013-07-06 11:22:00,
2013-07-06 06:33:00,66.0,63.0,30.06,South,172,3.0,-999.0,88,-99.99,,,-99.99,,2013-07-06 11:33:00,
2013-07-06 06:42:00,66.0,63.0,30.07,SSE,168,3.0,-999.0,88,-99.99,,,-99.99,,2013-07-06 11:42:00,
2013-07-06 06:53:00,68.0,64.0,30.06,South,173,3.0,-999.0,88,-99.99,,,-99.99,,2013-07-06 11:53:00,
2013-07-06 07:01:00,68.0,64.0,30.06,South,171,3.0,-999.0,88,-99.99,,,-99.99,,2013-07-06 12:01:00,
2013-07-06 07:11:00,70.0,64.0,30.06,SSW,199,5.0,-999.0,82,-99.99,,,-99.99,,2013-07-06 12:11:00,
2013-07-06 07:22:00,70.0,64.0,30.06,South,182,5.0,-999.0,82,-99.99,,,-99.99,,2013-07-06 12:22:00,
2013-07-06 07:33:00,70.0,66.0,30.07,North,0,3.0,-999.0,88,-99.99,,,-99.99,,2013-07-06 12:33:00,
2013-07-06 07:43:00,70.0,64.0,30.06,South,189,6.0,-999.0,82,-99.99,,,-99.99,,2013-07-06 12:43:00,
2013-07-06 07:52:00,72.0,66.0,30.07,South,185,5.0,-999.0,83,-99.99,,,-99.99,,2013-07-06 12:52:00,
2013-07-06 08:01:00,72.0,66.0,30.07,South,173,5.0,-999.0,83,-99.99,,,-99.99,,2013-07-06 13:01:00,
2013-07-06 08:12:00,73.0,66.0,30.06,SSW,192,5.0,-999.0,78,-99.99,,,-99.99,,2013-07-06 13:12:00,
2013-07-06 08:22:00,73.0,66.0,30.06,South,184,7.0,-999.0,78,-99.99,,,-99.99,,2013-07-06 13:22:00,
2013-07-06 08:33:00,73.0,66.0,30.06,SSW,208,5.0,-999.0,78,-99.99,,,-99.99,,2013-07-06 13:33:00,
2013-07-06 08:43:00,73.0,66.0,30.07,SSW,198,6.0,-999.0,78,-99.99,,,-99.99,,2013-07-06 13:43:00,
2013-07-06 08:52:00,75.0,66.0,30.07,South,174,5.0,-999.0,73,-99.99,,,-99.99,,2013-07-06 13:52:00,
2013-07-06 09:02:00,75.0,66.0,30.06,South,169,7.0,-999.0,73,-99.99,,,-99.99,,2013-07-06 14:02:00,
2013-07-06 09:11:00,75.0,66.0,30.06,South,187,8.0,-999.0,73,-99.99,,,-99.99,,2013-07-06 14:11:00,
2013-07-06 09:22:00,77.0,66.0,30.05,South,190,5.0,-999.0,69,-99.99,,,-99.99,,2013-07-06 14:22:00,
2013-07-06 09:34:00,79.0,66.0,30.06,SSW,205,8.0,-999.0,65,-99.99,,,-99.99,,2013-07-06 14:34:00,
2013-07-06 09:42:00,79.0,66.0,30.05,South,190,6.0,-999.0,65,-99.99,,,-99.99,,2013-07-06 14:42:00,
2013-07-06 09:53:00,81.0,68.0,30.05,SSE,167,7.0,-999.0,65,-99.99,,,-99.99,,2013-07-06 14:53:00,
2013-07-06 10:02:00,81.0,66.0,30.04,South,191,5.0,-999.0,61,-99.99,,,-99.99,,2013-07-06 15:02:00,
2013-07-06 10:12:00,81.0,66.0,30.04,SSW,199,6.0,-999.0,61,-99.99,,,-99.99,,2013-07-06 15:12:00,
2013-07-06 10:22:00,81.0,66.0,30.05,SSW,197,6.0,-999.0,61,-99.99,,,-99.99,,2013-07-06 15:22:00,
2013-07-06 10:33:00,82.0,68.0,30.05,SW,220,6.0,-999.0,61,-99.99,,,-99.99,,2013-07-06 15:33:00,
2013-07-06 10:43:00,82.0,66.0,30.04,SSW,212,6.0,-999.0,58,-99.99,,,-99.99,,2013-07-06 15:43:00,
2013-07-06 10:53:00,82.0,68.0,30.04,SW,217,6.0,-999.0,61,-99.99,,,-99.99,,2013-07-06 15:53:00,
2013-07-06 11:07:00,82.0,66.0,30.05,South,188,6.0,-999.0,58,-99.99,,,-99.99,,2013-07-06 16:07:00,
2013-07-06 11:15:00,84.0,68.0,30.04,South,182,5.0,-999.0,58,-99.99,,,-99.99,,2013-07-06 16:15:00,
2013-07-06 11:42:00,84.0,68.0,30.04,SSE,167,6.0,-999.0,58,-99.99,,,-99.99,,2013-07-06 16:42:00,
2013-07-06 11:52:00,84.0,68.0,30.04,SSE,159,5.0,-999.0,58,-99.99,,,-99.99,,2013-07-06 16:52:00,
2013-07-06 12:12:00,88.0,70.0,30.04,SSE,152,6.0,-999.0,55,-99.99,,,-99.99,,2013-07-06 17:12:00,
2013-07-06 12:30:00,88.0,68.0,30.03,SSW,213,6.0,-999.0,51,-99.99,,,-99.99,,2013-07-06 17:30:00,
2013-07-06 12:59:00,88.0,68.0,30.02,SSE,157,8.0,-999.0,51,-99.99,,,-99.99,,2013-07-06 17:59:00,
2013-07-06 13:10:00,88.0,66.0,30.02,SSW,199,5.0,-999.0,48,-99.99,,,-99.99,,2013-07-06 18:10:00,
2013-07-06 13:22:00,88.0,66.0,30.02,SSW,203,5.0,-999.0,48,-99.99,,,-99.99,,2013-07-06 18:22:00,
2013-07-06 13:43:00,90.0,66.0,30.01,SSW,204,6.0,-999.0,46,-99.99,,,-99.99,,2013-07-06 18:43:00,
2013-07-06 14:00:00,90.0,66.0,30.01,SW,221,6.0,-999.0,46,-99.99,,,-99.99,,2013-07-06 19:00:00,
2013-07-06 14:10:00,90.0,64.0,30.01,SW,225,6.0,-999.0,43,-99.99,,,-99.99,,2013-07-06 19:10:00,
2013-07-06 14:42:00,90.0,66.0,30.00,SE,139,3.0,-999.0,46,-99.99,,,-99.99,,2013-07-06 19:42:00,
2013-07-06 14:56:00,90.0,64.0,30.00,SSE,150,5.0,-999.0,43,-99.99,,,-99.99,,2013-07-06 19:56:00,
2013-07-06 15:11:00,90.0,66.0,30.00,South,188,9.0,-999.0,46,-99.99,,,-99.99,,2013-07-06 20:11:00,
2013-07-06 15:21:00,90.0,64.0,30.00,SSW,210,5.0,-999.0,43,-99.99,,,-99.99,,2013-07-06 20:21:00,
2013-07-06 15:30:00,91.0,66.0,30.00,South,189,5.0,-999.0,43,-99.99,,,-99.99,,2013-07-06 20:30:00,
2013-07-06 15:43:00,91.0,64.0,29.99,SSW,192,8.0,-999.0,40,-99.99,,,-99.99,,2013-07-06 20:43:00,
2013-07-06 15:52:00,91.0,66.0,29.99,South,190,5.0,-999.0,43,-99.99,,,-99.99,,2013-07-06 20:52:00,
2013-07-06 16:11:00,91.0,64.0,29.99,South,191,9.0,-999.0,40,-99.99,,,-99.99,,2013-07-06 21:11:00,
2013-07-06 16:18:00,91.0,64.0,29.99,SSE,162,7.0,-999.0,40,-99.99,,,-99.99,,2013-07-06 21:18:00,
2013-07-06 16:31:00,91.0,64.0,29.98,SSW,211,7.0,-999.0,40,-99.99,,,-99.99,,2013-07-06 21:31:00,
2013-07-06 16:42:00,91.0,64.0,29.98,South,184,9.0,-999.0,40,-99.99,,,-99.99,,2013-07-06 21:42:00,
2013-07-06 16:52:00,91.0,64.0,29.98,SSW,194,9.0,-999.0,40,-99.99,,,-99.99,,2013-07-06 21:52:00,
2013-07-06 17:00:00,91.0,64.0,29.98,South,185,5.0,-999.0,40,-99.99,,,-99.99,,2013-07-06 22:00:00,
2013-07-06 17:12:00,91.0,64.0,29.98,South,186,8.0,-999.0,40,-99.99,,,-99.99,,2013-07-06 22:12:00,
2013-07-06 17:21:00,91.0,63.0,29.98,South,188,9.0,-999.0,38,-99.99,,,-99.99,,2013-07-06 22:21:00,
2013-07-06 17:52:00,91.0,64.0,29.97,South,186,6.0,-999.0,40,-99.99,,,-99.99,,2013-07-06 22:52:00,
2013-07-06 17:59:00,91.0,64.0,29.97,South,171,5.0,-999.0,40,-99.99,,,-99.99,,2013-07-06 22:59:00,
2013-07-06 18:09:00,91.0,64.0,29.97,South,180,7.0,-999.0,40,-99.99,,,-99.99,,2013-07-06 23:09:00,
2013-07-06 18:21:00,91.0,64.0,29.96,SSW,200,6.0,-999.0,40,-99.99,,,-99.99,,2013-07-06 23:21:00,
2013-07-06 18:31:00,91.0,64.0,29.96,South,173,6.0,-999.0,40,-99.99,,,-99.99,,2013-07-06 23:31:00,
2013-07-06 18:43:00,90.0,64.0,29.96,SSE,164,5.0,-999.0,43,-99.99,,,-99.99,,2013-07-06 23:43:00,
2013-07-06 18:51:00,90.0,64.0,29.97,SSW,199,6.0,-999.0,43,-99.99,,,-99.99,,2013-07-06 23:51:00,
2013-07-06 19:13:00,90.0,64.0,29.97,SSE,162,3.0,-999.0,43,-99.99,,,-99.99,,2013-07-07 00:13:00,
2013-07-06 19:52:00,88.0,66.0,29.98,SSE,168,3.0,-999.0,48,-99.99,,,-99.99,,2013-07-07 00:52:00,
2013-07-06 20:10:00,88.0,66.0,29.98,SSE,155,3.0,-999.0,48,-99.99,,,-99.99,,2013-07-07 01:10:00,
2013-07-06 20:21:00,86.0,66.0,29.98,South,188,3.0,-999.0,51,-99.99,,,-99.99,,2013-07-07 01:21:00,
2013-07-06 20:31:00,86.0,66.0,29.99,South,175,3.0,-999.0,51,-99.99,,,-99.99,,2013-07-07 01:31:00,
2013-07-06 20:51:00,84.0,66.0,29.99,South,176,2.0,-999.0,54,-99.99,,,-99.99,,2013-07-07 01:51:00,
2013-07-06 20:58:00,84.0,66.0,29.99,SSE,159,3.0,-999.0,54,-99.99,,,-99.99,,2013-07-07 01:58:00,
2013-07-06 21:30:00,82.0,66.0,30.00,SSE,160,3.0,-999.0,58,-99.99,,,-99.99,,2013-07-07 02:30:00,
2013-07-06 21:38:00,82.0,66.0,30.00,SSE,157,3.0,-999.0,58,-99.99,,,-99.99,,2013-07-07 02:38:00,
2013-07-06 21:48:00,82.0,66.0,30.00,SSE,164,5.0,-999.0,58,-99.99,,,-99.99,,2013-07-07 02:48:00,
2013-07-06 21:56:00,82.0,66.0,30.01,SSE,167,3.0,-999.0,58,-99.99,,,-99.99,,2013-07-07 02:56:00,
2013-07-06 22:19:00,81.0,66.0,30.01,SSE,157,5.0,-999.0,61,-99.99,,,-99.99,,2013-07-07 03:19:00,
2013-07-06 22:38:00,81.0,66.0,30.02,SSE,168,3.0,-999.0,61,-99.99,,,-99.99,,2013-07-07 03:38:00,
2013-07-06 23:02:00,81.0,66.0,30.03,South,189,5.0,-999.0,61,-99.99,,,-99.99,,2013-07-07 04:02:00,
2013-07-06 23:11:00,81.0,66.0,30.03,South,169,5.0,-999.0,61,-99.99,,,-99.99,,2013-07-07 04:11:00,
2013-07-06 23:21:00,81.0,66.0,30.03,South,169,3.0,-999.0,61,-99.99,,,-99.99,,2013-07-07 04:21:00,
2013-07-06 23:31:00,79.0,66.0,30.03,South,187,3.0,-999.0,65,-99.99,,,-99.99,,2013-07-07 04:31:00,
2013-07-06 23:41:00,79.0,66.0,30.03,South,191,3.0,-999.0,65,-99.99,,,-99.99,,2013-07-07 04:41:00,
2013-07-06 23:51:00,79.0,66.0,30.03,South,178,5.0,-999.0,65,-99.99,,,-99.99,,2013-07-07 04:51:00,